Home   Weather   Jersey City   Past weeks

Flag for USA Past Weather in Jersey City, New Jersey, USA — Yesterday and Last 2 Weeks

Now
59 °F

Mostly cloudy.


Feels Like: 60 °F
Forecast: 49 / 60 °F
Wind: 3 mph from North

Location: Newark International Airport

Current Time: Feb 25, 2017 at 1:47:44 am

Latest Report: Feb 25, 2017 at 12:51 am


Visibility: 10 mi

Pressure: 29.83 "Hg

Humidity: 90%

Dew Point: 56 °F

Location of Jersey CityLocation

Past Weather in Jersey City — Graph

°F

Jersey City Temperature Yesterday

Maximum temperature yesterday: 73 °F (at 12:51 pm)
Minimum temperature yesterday: 53 °F (at 6:51 am)
Average temperature yesterday: 62 °F

High & Low Weather Summary for the Past Weeks

 TemperatureHumidityPressure
High73 °F (Feb 24, 12:51 pm)100% (Feb 23, 8:35 am)30.40 "Hg (Feb 23, 8:35 am)
Low18 °F (Feb 10, 12:51 am)15% (Feb 20, 4:51 pm)29.31 "Hg (Feb 15, 3:51 pm)
Average42 °F60%29.90 "Hg
* Reported Feb 9 11:51 pm — Feb 24 11:51 pm, Jersey City, Weather by CustomWeather, © 2017

Note: Actual official high and low records may vary slightly from our data, if they occured in-between our weather recording intervals... More about our weather records

Advertising

Jersey City Weather History for the Previous 24 Hours

Scroll right to see more
 ConditionsComfort  
Time TempWeatherWind HumidityBarometerVisibility
11:51 pm
Fri, Feb 24
59 °FPartly cloudy.5 mph90%29.84 "Hg10 mi
10:51 pm60 °FPartly cloudy.7 mph90%29.85 "Hg10 mi
9:51 pm61 °FPassing clouds.7 mph83%29.85 "Hg10 mi
8:51 pm61 °FPassing clouds.8 mph81%29.85 "Hg10 mi
7:51 pm64 °FPassing clouds.7 mph73%29.85 "Hg10 mi
6:51 pm65 °FPassing clouds.7 mph66%29.84 "Hg10 mi
5:51 pm67 °FPartly cloudy.8 mph61%29.84 "Hg10 mi
4:51 pm68 °FBroken clouds.10 mph59%29.84 "Hg10 mi
3:51 pm69 °FPartly sunny.8 mph55%29.84 "Hg10 mi
2:51 pm70 °FScattered clouds.9 mph53%29.84 "Hg10 mi
1:51 pm72 °FBroken clouds.8 mph52%29.86 "Hg10 mi
12:51 pm73 °FBroken clouds.13 mph50%29.88 "Hg10 mi
11:51 am72 °FScattered clouds.13 mph53%29.91 "Hg10 mi
10:51 am68 °FScattered clouds.9 mph63%29.93 "Hg10 mi
9:51 am66 °FPartly sunny.7 mph68%29.95 "Hg10 mi
8:51 am61 °FPartly sunny.9 mph75%29.94 "Hg10 mi
7:51 am57 °FPartly sunny.3 mph83%29.93 "Hg10 mi
6:51 am53 °FScattered clouds.No wind89%29.93 "Hg10 mi
5:51 am54 °FPassing clouds.5 mph86%29.92 "Hg10 mi
4:51 am54 °FPassing clouds.No wind86%29.92 "Hg10 mi
3:51 am54 °FPassing clouds.No wind83%29.91 "Hg10 mi
2:51 am55 °FPassing clouds.5 mph83%29.90 "Hg10 mi
1:51 am56 °FPassing clouds.7 mph81%29.90 "Hg10 mi
Weather by CustomWeather, © 2017

See weather overviewHow to use our weather pages